Погода в Оренбурге

Погода в Оренбурге : погода сейчас, прогноз погоды и архив. Всё, что Вы хотите узнать о погоде в Оренбурге!

Хотите узнать прогноз погоды в Оренбурге? Тогда Вам сюда: Погода в Оренбурге

Поиск расширенной информации на нашем сайте:

Другие новости

Новости СМИ2

Главная страница сайта

Новости сайта

03.07.2017

Напоминаем, что на нашем специализированном сайте Метеоцентр.Азия вы можете получить высокодетализированные автоматические прогнозы погоды по пунктам России, СНГ и мира в авиационном формате (включающие направление и скорость ветра, видимость, явления погоды, количество и форму облачности, нижнюю и верхнюю границу облачности).

Рекомендуем: http://www.lan.by/ Бюро переводов деловые услуги город Мозырь.

Погода в Оренбурге - сегодня

Время (UTC), дата Ветер
(°,м/с) 
Видим.   Явления Облачность Т
(°С)
Тd
(°С)
f(%) Тe
(°С)
Pmin
(гПа)
dP
(гПа)
Po
(мм)
O2
(г/м3)
Тmin Tmax R s Состояние
почвы
21 24.07.17 310 (СЗ) 20000 м    6/0 средняя 
[Ac trans]
+16.9 +11.2 69 +21  1007.8  0.4  746  281           
00 25.07.17 320 (СЗ) 20000 м    3/0 верхняя 
[Ci fib]
+13.8 +9.9 77 +15  1008.3  0.4  746  284           
03 25.07.17 330 (СЗ) 20000 м    1/0 верхняя 
[Ci fib]
+16.9 +10.3 65 +20  1009.3  1.1  747  281  +12.8        сухая 
06 25.07.17 010 (С) 20000 м    3/3 1000 м верхняя 
[Cu hum|Ci fib]
+22.7 +9.3 42 +23  1009.3  0.2  747  276           
09 25.07.17 300 (СЗ) 5{11}  20000 м    4/3 1000 м верхняя 
[Cu hum|Ci fib]
+25.5 +9.2 36 +26  1008.5  -0.6  746  273           
12 25.07.17 320 (СЗ) 5{10}  20000 м    1/1 1000 м 
[Cu hum]
+26.6 +8.5 32 +27  1007.7  -0.8  746  272           
15 25.07.17 310 (СЗ) 20000 м    1/1 1000 м 
[Cu hum]
+25.2 +9.1 36 +25  1007.9  0.2  746  274    +26.8       
18 25.07.17 270 (З) 20000 м    3/0 верхняя 
[Ci sp]
+17.9 +8.1 53 +19  1009.1  0.7  746  281           
21 25.07.17 240 (ЮЗ) 20000 м    3/0 верхняя 
[Ci fib]
+15.8 +8 60 +17  1009.3  0.1  747  283           
00 26.07.17 210 (ЮЗ) 20000 м    3/0 средняя, верхняя 
[Ac trans|Ci fib]
+13.3 +7.7 69 +14  1009.1  -0.2  746  285           
03 26.07.17 290 (З) 20000 м    4/0 средняя, верхняя 
[Ac lent|Ci fib]
+15.8 +8.4 61 +17  1009.8  0.7  747  283  +11.9        сухая 
06 26.07.17 290 (З) 20000 м    9/8 1000 м средняя 
[Cu Sc|Ac trans]
+23.3 +9.7 42 +24  1009  -0.4  747  275           
09 26.07.17 270 (З) 20000 м    9/8 600 м кучево-дожд., средняя 
[Cb calv|Ac trans]
+24.8 +10.2 40 +26  1008.1  -0.8  746  274           
12 26.07.17 280 (З) 20000 м    9/9 1000 м 
[Cu Sc]
+26.5 +10.7 37 +29  1007.2  -0.8  745  272           
15 26.07.17 300 (СЗ) 3{10}  20000 м    6/4 1500 м средняя, верхняя 
[Cu hum|Ac trans|Ci fib]
+25.5 +10.2 38 +27  1006.9  -0.4  745  273    +27.1       
18 26.07.17 260 (З) 20000 м    3/0 верхняя 
[Ci fib]
+18.4 +9.7 57 +20  1008.5  1.2  746  280           
21 26.07.17 210 (ЮЗ) 20000 м    ясно 
+15.6 +8.1 61 +16  1009  0.3  746  283           
00 27.07.17 230 (ЮЗ) 20000 м    1/0 верхняя 
[Ci fib]
+13.9 +9.2 73 +14  1009.7  0.6  747  285           
03 27.07.17 260 (З) 20000 м    3/0 верхняя 
[Ci fib]
+18.5 +11.6 64 +22  1010.3  0.8  747  280  +12.8        сухая 
06 27.07.17 300 (СЗ) 20000 м    6/6 600 м 
[Cu hum]
+24.5 +12.6 47 +29  1010.2  0.2  748  274           
09 27.07.17 330 (СЗ) 6-12{12}  20000 м    9/9 600 м кучево-дожд. 
[Cb cap]
+26.4 +12.7 43 +31  1010.2  0.1  748  272           
12 27.07.17 320 (СЗ) 5{11}  20000 м    8/8 1000 м средняя 
[Sc diur, vesp|Ac trans]
+28.2 +13.4 40 +34  1010  0.1  748  270           
15 27.07.17 320 (СЗ) 20000 м    6/6 1000 м 
[Sc diur, vesp]
+27.8 +13 40 +33  1010.6  0.5  748  271    +29       
18 27.07.17 070 (В) 20000 м    ясно 
+23 +13.9 57 +30  1011.8  749  275           
21 27.07.17 160 (Ю) 20000 м    ясно 
+17.8 +12 69 +23  1013.3  1.2  750  281           
Время (UTC), дата Ветер
(°,м/с) 
Видим.   Явления Облачность Т
(°С)
Тd
(°С)
f(%) Тe
(°С)
Pmin
(гПа)
dP
(гПа)
Po
(мм)
O2
(г/м3)
Тmin Tmax R s Состояние
почвы

Для получения пояснительной информации подведите курсор к названию столбца.

ПОГОДА в Оренбурге - архив

Всё, что Вы хотите узнать о погоде в Оренбурге - удобно и подробно!

Выберите нужную дату (начиная с 1 января 2015* года) и нажмите кнопку "Найти".
Будут отображены архивные сводки погоды по пункту Оренбург, начиная с указанной даты.


Отображать данные в формате CSV (для использования в таблицах Excel)


Внимание! Наш архив погоды предназначен исключительно для личного некоммерческого использования в познавательных целях. Если Вам необходимы официальные справки о состоянии погоды (для производственных, юридических, коммерческих и т.п. целей), обращайтесь в органы Росгидромета.

*Примечание: данная дата относится к архиву по метеостанциям СССР (Россия, СНГ, Балтия).
Архив по метеостанциям Зарубежной Европы и Азии (кроме Китая) хранится 10 дней, по другим регионам земного шара (Китай, Африка, Америка, Австралия, Океания) - 1 день.

Оренбург - район местоположения метеостанции


Название, широта, долгота, высота метеостанции:
Оренбург (город) 51.7°ш. 55.1°д. 117 м над ур. моря [Российская Федерация]

Дополнительная информация

В oтличие oт бoльшинства пoгoдных сайтoв мы публикуем пoдрoбную метеoинфoрмацию в детальнoм прoфессиoнальнoм фoрмате.

Характеристики температуры и влажнoсти вoздуха измеряются на высoте 2 м в тени вдали oт зданий и деревьев.
Скoрoсть ветра измеряется на высoте 10 м (на урoвне рoста челoвека скoрoсть ветра ниже в 1.5-2 раза). Если метеoстанция нахoдится в гoрoде или в лесу, тo скoрoсть ветра занижена на 2-4 м/с пo сравнению с oткрытым местoм. Скoрoсть ветра над акватoриями крупных рек и oзёр, а также на вершинах хoлмoв на 2-5 м/с выше, чем в oбычных услoвиях.
Атмoсфернoе давление в разных тoчках местнoсти мoжет значительнo oтличаться oт давления на метеoстанции, в зависимoсти oт услoвий рельефа (при пoдъёме на 10 м давление пoнижается примернo на 1 мм рт.ст.).